CAPE
0 0 0 0 0 0 0 0 2 1 0 0 0 1 3 1 4 0 0 0 1 1 0 0 0 0 0 0 0 0 0 0 0 0 0 0 0 0 0 0 0 0 0 0 0 0 0 0 0 0 8 0 0 4
0 0 0 0 0 0 0 0 1 0 0 0 0 1 2 3 3 8 0 0 2 2 0 0 0 0 0 0 0 0 0 0 0 0 0 0 0 0 0 0 0 0 0 0 0 0 0 0 2 14 14 6 3 4
0 0 0 0 0 0 0 0 2 0 1 0 0 1 4 2 4 10 5 5 0 1 0 0 0 0 0 0 0 0 0 0 0 0 1 0 0 4 0 0 0 0 0 2 1 0 0 4 7 6 8 6 6 0
0 0 0 0 0 0 0 0 1 1 0 0 0 0 2 1 3 6 2 1 0 0 0 0 0 0 0 0 0 0 0 0 0 5 2 0 1 1 0 0 0 0 0 0 0 0 2 0 8 0 0 2 0 0
0 0 0 0 0 0 0 0 2 0 0 0 0 1 4 6 5 2 0 0 0 0 0 0 0 0 0 0 0 0 0 0 0 8 2 0 4 1 2 1 0 0 0 1 3 9 8 0 0 0 1 1 2 4
0 0 0 0 0 0 0 1 1 0 0 1 0 2 3 3 4 0 0 0 0 0 1 0 0 0 0 0 0 0 0 0 0 5 6 6 1 1 0 0 0 0 0 11 17 16 4 0 7 0 5 3 2 1
0 0 0 0 0 0 5 0 0 0 2 0 1 1 2 4 1 0 0 0 0 0 0 0 0 0 0 0 0 0 0 0 0 1 1 3 3 5 0 0 1 2 0 13 1 0 2 4 5 8 6 1 3 3
0 0 0 0 0 0 1 6 0 0 0 0 0 0 2 2 2 0 0 0 0 1 1 1 0 0 0 0 0 0 0 0 3 4 2 1 3 2 0 0 4 2 0 0 0 0 0 0 8 8 4 1 2 2
0 0 0 0 0 0 0 6 0 1 0 0 0 0 0 0 0 0 0 0 0 0 0 0 0 0 0 0 0 0 4 5 2 1 1 1 0 0 1 2 6 2 1 0 0 0 0 0 0 5 2 1 1 3
0 0 0 0 0 1 10 2 1 0 0 0 0 0 0 0 0 18 0 2 1 0 0 1 1 0 0 0 0 0 4 8 5 1 0 0 0 2 2 2 3 1 0 0 0 0 0 0 9 4 3 5 3 3
1 1 2 0 0 8 5 1 0 0 0 0 0 0 0 0 0 0 0 2 0 0 1 0 0 0 0 0 0 3 3 2 0 0 2 0 0 2 2 3 3 0 0 0 0 0 0 1 9 2 2 3 3 3
3 3 3 0 0 12 1 2 0 0 0 0 0 0 0 0 0 0 0 1 0 0 0 0 0 0 0 0 19 2 2 2 0 0 0 0 0 3 2 3 4 0 9 0 0 0 0 0 3 0 3 3 2 3
4 1 1 0 2 2 3 0 0 0 0 0 0 0 0 0 0 0 0 0 0 0 0 0 0 0 0 0 5 0 0 0 1 0 0 0 0 2 2 3 3 0 1 0 0 0 0 0 0 1 3 2 2 3
4 1 0 2 8 4 3 0 0 0 0 0 0 0 0 0 0 0 0 0 0 0 0 0 0 0 0 0 0 0 0 0 0 0 0 0 2 2 2 3 5 1 7 0 0 0 0 0 0 0 1 2 2 3
2 0 1 7 2 3 1 0 0 0 0 0 0 0 0 0 0 0 0 0 0 0 0 0 0 0 0 0 0 0 0 0 0 0 1 1 1 1 1 3 5 4 7 0 0 0 0 0 0 0 0 1 0 0
0 3 7 4 4 3 0 0 0 0 0 0 0 0 0 0 0 0 0 0 0 0 0 0 0 0 0 0 0 0 0 0 0 1 1 1 2 0 1 2 3 3 1 19 0 0 0 0 0 0 0 0 0 0
7 0 2 3 3 0 0 0 0 0 0 0 0 0 0 0 0 0 0 0 0 0 0 0 0 0 0 0 0 0 0 0 2 0 0 1 1 0 1 3 3 4 4 0 1 0 0 0 0 0 0 0 0 0
0 2 4 3 0 1 0 0 0 0 0 0 0 0 0 0 0 0 0 0 0 0 0 0 0 0 0 0 0 0 2 0 0 0 0 1 3 3 2 2 3 4 4 1 2 0 0 0 0 0 0 0 0 0
1 3 1 0 0 0 0 0 0 0 0 0 0 0 0 0 0 0 0 0 0 0 0 0 0 0 0 0 0 2 0 0 0 0 1 2 1 2 1 3 3 4 4 3 2 0 1 0 0 0 0 0 0 0
3 2 0 0 0 0 0 0 0 0 0 0 0 0 0 0 0 0 0 0 0 0 0 0 0 0 0 0 0 0 0 0 0 0 1 0 2 2 2 2 3 3 4 5 3 2 1 0 0 0 0 0 0 0
1 10 7 0 0 0 0 0 0 0 0 0 0 0 0 0 0 0 0 0 0 0 0 0 0 0 0 0 0 0 0 0 0 1 0 1 0 2 2 1 1 2 3 5 6 4 4 4 4 1 0 0 0 0
1 0 0 0 0 0 0 0 0 0 0 0 0 0 0 0 0 0 0 0 0 0 0 0 0 4 0 0 0 0 0 0 0 0 2 0 0 1 1 2 2 3 2 3 4 5 5 4 4 2 0 0 0 0
0 0 0 0 0 0 0 0 0 0 0 0 0 0 0 0 0 0 0 0 0 0 0 0 1 1 0 0 0 0 0 0 0 0 0 0 0 0 0 1 1 2 2 1 1 2 3 3 4 3 0 0 0 0
2 0 0 0 0 0 0 0 0 0 0 0 0 0 0 0 0 0 0 0 0 0 0 0 0 0 0 0 0 0 0 0 0 0 0 0 0 0 0 0 1 1 0 1 1 1 1 3 3 4 3 1 0 0
0 0 0 0 0 0 0 0 0 0 0 0 0 0 0 0 0 0 0 0 0 0 0 0 0 0 0 0 0 0 0 0 0 0 0 0 0 0 0 0 0 1 0 1 2 2 2 2 3 4 4 4 1 0
0 0 0 0 0 0 0 0 0 0 0 0 0 0 0 0 0 0 0 0 0 0 0 0 0 0 0 0 0 0 0 0 0 0 0 0 0 0 0 0 0 0 1 0 1 2 3 3 3 3 3 3 2 2
0 0 0 0 0 0 0 0 0 0 0 0 0 0 0 0 0 0 0 0 0 0 0 0 0 0 0 0 0 0 0 0 0 0 0 0 0 0 0 0 0 0 1 1 1 3 4 5 4 5 5 3 3 3
0 0 0 0 0 0 0 0 0 0 0 0 0 0 0 0 0 0 0 0 0 0 0 0 0 0 0 0 0 0 0 0 0 0 0 0 0 0 0 0 0 0 1 1 1 1 3 4 3 5 7 7 5 3
0 0 0 0 0 0 1 3 3 0 0 1 2 0 0 0 0 0 0 0 0 0 0 0 0 0 0 0 0 0 0 0 0 0 0 0 0 0 0 0 0 1 2 0 0 1 0 0 2 4 4 4 4 2
0 0 0 0 0 4 2 0 0 0 0 0 0 0 0 0 0 0 0 0 0 0 0 0 0 0 0 0 0 0 0 0 0 0 0 0 0 0 0 0 0 0 0 0 0 0 0 0 0 0 0 0 4 5
0 0 0 4 1 2 0 0 0 0 0 0 0 0 0 0 0 0 0 0 0 0 0 0 0 0 0 0 0 0 0 0 0 0 0 0 0 0 0 0 0 0 0 0 0 0 0 0 0 0 0 0 1 3
0 0 1 0 1 0 0 0 0 0 1 1 0 0 0 0 0 0 0 0 0 0 0 0 0 0 0 0 0 0 0 0 0 0 0 0 0 0 0 0 0 0 0 0 0 0 0 0 0 0 0 0 2 2
0 0 1 11 0 0 0 0 0 1 0 0 0 0 0 0 0 0 0 0 0 0 0 0 0 0 0 0 0 0 0 0 0 0 0 0 0 0 0 0 0 0 0 0 0 0 0 0 0 0 0 0 0 0
CIN
-0 -0 -0 -0 -0 -0 -0 -0 -0 -2 -0 -0 -0 -0 -0 -0 -1 -2 -0 -0 -2 -0 -0 -0 -0 -0 -0 -0 -0 -0 -0 -0 -0 -0 -0 -0 -0 -0 -0 -0 -0 -0 -0 -0 -0 -0 -0 -0 -0 -1 -1 -0 -1 -0
-0 -0 -0 -0 -0 -0 -0 -0 -0 -2 -0 -0 -0 -0 -0 -0 -0 -1 -0 -0 -11 -0 -0 -0 -0 -0 -0 -0 -0 -0 -0 -0 -0 -0 -0 -0 -0 -0 -0 -0 -0 -0 -0 -0 -0 -0 -0 -6 -0 -1 -6 -2 -2 -2
-0 -0 -0 -0 -0 -0 -0 -0 -0 -0 -0 -0 -0 -0 -0 -1 -1 -0 -1 -3 -2 -0 -0 -0 -0 -0 -0 -0 -0 -0 -0 -0 -0 -0 -0 -2 -0 -1 -0 -0 -0 -0 -0 -1 -0 -0 -0 -0 -8 -11 -4 -3 -0 -0
-0 -0 -0 -0 -0 -0 -0 -0 -0 -0 -0 -0 -0 -0 -0 -0 -1 -0 -1 -3 -0 -0 -0 -0 -0 -0 -0 -0 -0 -0 -0 -0 -0 -5 -7 -1 -0 -0 -0 -0 -0 -0 -0 -0 -0 -0 -0 -0 -3 -0 -0 -3 -0 -1
-0 -0 -0 -0 -0 -0 -0 -0 -0 -0 -0 -0 -0 -0 -0 -0 -0 -1 -0 -0 -0 -0 -0 -0 -0 -0 -0 -0 -0 -0 -0 -0 -0 -0 -2 -0 -0 -0 -1 -0 -0 -0 -0 -0 -1 -4 -0 -0 -0 -0 -1 -0 -0 -0
-0 -0 -0 -0 -0 -0 -0 -0 -0 -0 -0 -0 -0 -0 -0 -0 -1 -0 -0 -0 -0 -0 -0 -0 -0 -0 -0 -0 -0 -0 -0 -0 -0 -0 -0 -0 -3 -0 -0 -0 -0 -0 -0 -6 -3 -12 -32 -0 -31 -0 -0 -0 -0 -0
-0 -0 -0 -0 -0 -0 -0 -0 -0 -0 -0 -0 -0 -0 -0 -0 -0 -0 -0 -0 -0 -0 -0 -0 -0 -0 -0 -0 -0 -0 -0 -0 -0 -0 -0 -0 -0 -0 -0 -0 -0 -0 -3 -8 -31 -0 -21 -23 -13 -12 -0 -0 -0 -0
-0 -0 -0 -0 -0 -0 -0 -0 -0 -0 -0 -0 -0 -0 -0 -0 -0 -0 -0 -0 -0 -0 -0 -0 -0 -0 -0 -0 -0 -0 -16 -4 -0 -0 -3 -0 -0 -0 -0 -0 -0 -0 -0 -0 -0 -0 -11 -51 -24 -1 -0 -0 -0 -0
-0 -0 -0 -0 -0 -0 -0 -2 -0 -0 -0 -0 -0 -0 -0 -0 -0 -9 -0 -10 -0 -0 -0 -0 -0 -0 -0 -0 -0 -0 -15 -3 -6 -2 -0 -0 -0 -0 -0 -0 -0 -0 -0 -0 -0 -0 -0 -0 -0 -0 -0 -0 -0 -0
-0 -0 -0 -0 -0 -3 -0 -11 -0 -0 -0 -0 -0 -0 -0 -0 -0 -0 -0 -1 -0 -0 -0 -0 -0 -0 -0 -0 -0 -0 -12 -5 -1 -3 -1 -0 -0 -0 -0 -0 -0 -0 -0 -0 -0 -0 -0 -0 -1 -0 -0 -0 -0 -0
-0 -0 -0 -0 -0 -1 -3 -0 -0 -0 -0 -0 -0 -0 -0 -0 -0 -0 -0 -1 -0 -0 -0 -0 -0 -0 -0 -0 -0 -3 -6 -7 -0 -0 -1 -0 -0 -0 -0 -0 -0 -0 -0 -0 -0 -0 -0 -2 -1 -0 -0 -0 -0 -0
-0 -0 -0 -0 -4 -0 -0 -0 -0 -0 -0 -0 -0 -0 -0 -0 -0 -0 -0 -1 -0 -0 -0 -0 -0 -0 -0 -0 -1 -6 -3 -1 -0 -0 -0 -0 -0 -0 -0 -0 -0 -0 -27 -0 -0 -0 -0 -0 -1 -0 -0 -0 -0 -0
-0 -0 -0 -0 -3 -8 -0 -0 -0 -0 -0 -0 -0 -0 -0 -0 -0 -0 -0 -0 -0 -0 -0 -0 -0 -0 -0 -29 -30 -0 -0 -0 -1 -0 -0 -0 -0 -0 -0 -0 -0 -0 -23 -0 -0 -0 -0 -0 -0 -0 -0 -0 -0 -0
-0 -0 -0 -6 -0 -4 -0 -0 -0 -0 -0 -0 -0 -0 -0 -0 -0 -0 -0 -0 -0 -0 -0 -0 -0 -0 -0 -0 -0 -0 -0 -0 -0 -0 -0 -0 -0 -0 -0 -0 -0 -0 -12 -0 -0 -0 -0 -0 -0 -0 -0 -0 -0 -0
-0 -0 -3 -0 -11 -0 -0 -0 -0 -0 -0 -0 -0 -0 -0 -0 -0 -0 -0 -0 -0 -0 -0 -0 -0 -0 -0 -0 -0 -0 -0 -0 -0 -0 -1 -0 -0 -0 -0 -0 -0 -0 -5 -0 -0 -0 -0 -0 -0 -0 -0 -0 -0 -0
-0 -1 -0 -4 -0 -0 -0 -0 -0 -0 -0 -0 -0 -0 -0 -0 -0 -0 -0 -0 -0 -0 -0 -0 -0 -0 -0 -0 -0 -0 -0 -0 -0 -0 -0 -0 -0 -0 -0 -0 -0 -0 -3 -20 -0 -0 -0 -0 -0 -0 -0 -0 -0 -0
-0 -0 -0 -0 -0 -0 -0 -0 -0 -0 -0 -0 -0 -0 -0 -0 -0 -0 -0 -0 -0 -0 -0 -0 -0 -0 -0 -0 -0 -0 -0 -0 -0 -0 -0 -0 -0 -0 -0 -0 -0 -0 -0 -0 -5 -0 -0 -0 -0 -0 -0 -0 -0 -0
-0 -0 -0 -0 -0 -0 -0 -0 -0 -0 -0 -0 -0 -0 -0 -0 -0 -0 -0 -0 -0 -0 -0 -0 -0 -0 -0 -0 -0 -0 -0 -0 -0 -0 -0 -0 -0 -0 -0 -0 -0 -0 -0 -0 -0 -0 -0 -0 -0 -0 -0 -0 -0 -0
-0 -0 -0 -0 -0 -0 -0 -0 -0 -0 -0 -0 -0 -0 -0 -0 -0 -0 -0 -0 -0 -0 -0 -0 -0 -0 -0 -0 -0 -0 -0 -2 -0 -0 -0 -0 -0 -0 -0 -0 -0 -0 -0 -0 -0 -0 -0 -0 -0 -0 -0 -0 -0 -0
-0 -0 -0 -0 -0 -0 -0 -0 -0 -0 -0 -0 -0 -0 -0 -0 -0 -0 -0 -0 -0 -0 -0 -0 -0 -0 -0 -0 -0 -0 -2 -0 -0 -0 -0 -0 -0 -0 -0 -0 -0 -0 -0 -0 -0 -0 -0 -0 -0 -0 -0 -0 -0 -0
-0 -0 -4 -0 -0 -0 -0 -0 -0 -0 -0 -0 -0 -0 -0 -0 -0 -0 -0 -0 -0 -0 -0 -0 -0 -0 -7 -0 -0 -1 -3 -0 -0 -0 -0 -0 -0 -0 -0 -0 -0 -0 -0 -0 -0 -0 -0 -0 -0 -0 -0 -0 -0 -0
-0 -0 -0 -0 -0 -0 -0 -0 -0 -0 -0 -0 -0 -0 -0 -0 -0 -0 -0 -0 -0 -0 -0 -0 -1 -3 -0 -0 -0 -0 -0 -0 -0 -0 -0 -0 -0 -0 -0 -0 -0 -0 -0 -0 -0 -0 -0 -0 -0 -0 -0 -0 -0 -0
-0 -6 -4 -0 -0 -0 -0 -0 -0 -0 -0 -0 -0 -0 -0 -0 -0 -0 -0 -0 -0 -0 -0 -0 -9 -14 -0 -6 -0 -0 -0 -0 -0 -0 -0 -0 -0 -0 -0 -0 -0 -0 -0 -0 -0 -0 -0 -0 -0 -0 -0 -0 -0 -0
-3 -0 -2 -0 -0 -0 -0 -0 -0 -0 -0 -0 -0 -0 -0 -0 -0 -0 -0 -0 -0 -0 -0 -0 -0 -0 -0 -2 -0 -0 -0 -0 -0 -0 -0 -0 -0 -0 -0 -0 -0 -0 -0 -0 -0 -0 -0 -0 -0 -0 -0 -0 -0 -0
-0 -0 -0 -0 -0 -0 -0 -0 -0 -0 -0 -0 -0 -0 -0 -0 -0 -0 -0 -0 -0 -0 -0 -0 -0 -0 -0 -0 -0 -0 -0 -0 -0 -0 -0 -0 -0 -0 -0 -0 -0 -0 -0 -0 -0 -0 -0 -0 -0 -0 -0 -0 -0 -0
-0 -0 -0 -0 -0 -0 -0 -0 -0 -0 -0 -0 -0 -0 -0 -0 -0 -0 -0 -0 -0 -0 -0 -0 -0 -0 -0 -0 -0 -0 -0 -0 -0 -0 -0 -0 -0 -0 -0 -0 -0 -0 -0 -0 -0 -0 -0 -0 -0 -0 -0 -0 -0 -0
-0 -0 -0 -0 -0 -0 -0 -0 -0 -0 -0 -0 -0 -0 -0 -0 -0 -0 -0 -0 -0 -0 -0 -0 -0 -0 -0 -0 -0 -0 -0 -0 -0 -0 -0 -0 -0 -0 -0 -0 -0 -0 -0 -0 -0 -0 -0 -0 -0 -0 -0 -0 -0 -0
-0 -0 -0 -0 -0 -0 -0 -0 -4 -0 -0 -0 -0 -0 -0 -0 -0 -0 -0 -0 -0 -0 -0 -0 -0 -0 -0 -0 -0 -0 -0 -0 -0 -0 -0 -0 -0 -0 -0 -0 -0 -0 -0 -0 -0 -0 -0 -0 -0 -0 -0 -0 -0 -0
-0 -0 -0 -0 -0 -0 -13 -4 -4 -4 -0 -12 -28 -0 -0 -0 -0 -0 -0 -0 -0 -0 -0 -0 -0 -0 -0 -0 -0 -0 -0 -0 -0 -0 -0 -0 -0 -0 -0 -0 -0 -0 -0 -0 -0 -0 -0 -0 -0 -0 -0 -0 -0 -0
-0 -0 -0 -0 -0 -3 -6 -1 -0 -0 -0 -0 -0 -0 -0 -0 -0 -0 -0 -0 -0 -0 -0 -0 -0 -0 -0 -0 -0 -0 -0 -0 -0 -0 -0 -0 -0 -0 -0 -0 -0 -0 -0 -0 -0 -0 -0 -0 -0 -0 -0 -0 -0 -0
-0 -0 -1 -1 -0 -1 -0 -0 -0 -0 -0 -0 -0 -0 -0 -0 -0 -0 -0 -0 -0 -0 -0 -0 -0 -0 -0 -0 -0 -0 -0 -0 -0 -0 -0 -0 -0 -0 -0 -0 -0 -0 -0 -0 -0 -0 -0 -0 -0 -0 -0 -0 -0 -0
-0 -0 -0 -0 -3 -0 -0 -0 -0 -0 -0 -0 -0 -0 -0 -0 -0 -0 -0 -0 -0 -0 -0 -0 -0 -0 -0 -0 -0 -0 -0 -0 -0 -0 -0 -0 -0 -0 -0 -0 -0 -0 -0 -0 -0 -0 -0 -0 -0 -0 -0 -0 -0 -0
-0 -6 -8 -1 -0 -1 -0 -0 -0 -0 -0 -0 -0 -0 -0 -0 -0 -0 -0 -0 -0 -0 -0 -0 -0 -0 -0 -0 -0 -0 -0 -0 -0 -0 -0 -0 -0 -0 -0 -0 -0 -0 -0 -0 -0 -0 -0 -0 -0 -0 -0 -0 -0 -0
Wind_Speed
22 21 21 21 21 21 24 27 24 24 27 27 28 28 28 27 27 26 21 18 23 22 19 19 19 20 21 21 23 21 21 18 14 15 11 10 12 14 19 21 19 20 19 14 6 20 25 24 32 26 25 24 32 29
25 23 23 24 22 23 25 27 26 24 26 27 27 27 26 25 25 24 21 18 19 19 19 18 11 7 8 10 17 16 16 14 13 12 11 10 9 7 17 13 17 5 5 6 9 15 22 29 31 15 16 25 31 30
26 26 26 26 24 24 25 27 26 24 25 26 26 27 25 23 23 21 19 20 20 21 20 20 20 20 14 8 8 15 13 13 13 12 12 13 11 11 12 6 9 8 3 4 17 20 21 32 15 13 16 30 29 33
26 26 26 24 24 24 24 25 25 26 25 26 25 25 24 24 23 21 18 17 18 20 19 19 19 21 16 14 10 10 8 11 10 10 9 10 9 11 8 5 11 6 10 12 16 20 29 17 31 30 21 31 31 29
26 26 25 25 23 22 24 24 24 26 27 27 27 25 23 23 23 20 14 13 11 18 18 16 16 20 18 12 8 6 9 8 7 9 9 8 7 7 5 5 6 14 13 21 24 18 24 24 43 33 27 28 26 22
26 24 24 24 22 22 23 23 24 26 27 28 28 24 22 22 23 20 18 17 15 13 17 17 17 18 22 20 16 15 8 8 10 9 8 9 7 7 10 15 12 17 23 27 16 8 18 20 17 24 24 24 21 18
24 25 27 24 21 22 23 23 23 27 28 29 27 24 21 19 17 16 17 19 14 15 17 17 17 17 23 23 19 17 14 14 10 10 9 7 8 11 13 16 29 26 11 14 32 30 11 19 19 21 21 18 15 15
19 21 22 21 21 21 22 21 22 26 28 29 28 26 20 15 15 15 15 8 9 15 16 19 17 18 24 24 21 17 14 15 13 13 13 13 14 13 16 18 17 19 13 24 30 15 6 17 18 20 16 14 13 12
15 14 16 16 18 19 22 19 21 25 27 28 29 22 17 14 13 16 16 16 12 13 17 18 22 21 22 21 18 16 15 13 16 15 12 14 19 21 4 11 18 17 9 14 20 25 11 20 17 15 12 11 11 12
15 13 12 14 16 17 18 17 19 23 26 27 17 15 14 13 16 14 15 15 14 14 14 17 19 21 22 22 17 15 12 13 16 16 17 14 16 28 27 16 11 15 17 21 12 22 19 16 14 12 10 10 10 12
15 11 11 13 15 17 13 14 18 21 20 15 12 13 15 16 14 15 14 14 15 16 15 16 19 22 20 19 16 10 10 12 12 17 19 15 21 28 26 22 15 17 12 12 3 6 14 12 9 11 9 11 12 13
13 10 9 11 15 18 10 12 15 16 15 13 14 14 14 13 14 13 13 15 16 17 17 20 22 20 19 15 14 13 10 10 12 20 16 18 26 26 20 18 16 18 13 9 3 10 9 9 6 8 8 10 11 12
12 8 8 10 16 7 8 9 12 14 13 13 12 12 13 12 12 13 15 17 19 18 18 22 23 21 18 18 15 13 12 10 20 15 16 20 26 25 19 15 17 16 15 12 6 13 14 11 8 8 9 9 10 10
11 7 6 8 9 5 4 8 10 10 11 9 11 12 10 11 11 13 15 18 18 17 19 21 21 19 19 19 17 15 13 14 12 16 18 25 29 27 21 14 11 14 16 10 4 14 14 12 10 10 10 9 11 11
10 7 6 11 5 5 5 6 8 10 9 10 10 12 10 12 12 13 16 18 18 19 21 20 20 20 21 20 18 16 15 13 14 17 21 25 24 23 20 16 12 11 15 14 15 12 14 15 13 13 11 11 12 10
8 6 12 6 5 3 3 4 8 9 11 10 10 11 11 10 12 14 16 17 19 20 19 19 20 21 23 20 18 17 15 14 18 22 25 24 23 22 21 19 16 13 12 16 14 14 15 18 15 14 13 12 12 11
6 15 5 8 6 3 2 8 7 9 10 11 11 11 10 11 11 14 15 17 18 19 19 18 20 20 18 20 19 15 14 12 22 25 24 24 24 23 21 22 21 20 18 18 17 16 17 17 16 18 15 14 12 10
15 4 12 12 7 2 8 10 10 9 9 9 10 8 9 11 12 14 15 17 17 18 18 18 18 20 19 19 16 14 13 21 23 24 25 24 24 24 22 22 22 21 21 21 19 18 18 17 17 16 16 13 15 14
3 10 14 14 5 6 6 7 10 11 10 10 11 7 9 10 14 15 16 17 17 17 18 18 18 18 16 16 15 14 13 22 23 24 24 24 23 24 23 24 23 23 22 21 20 19 19 19 18 17 16 16 14 12
9 12 15 8 10 8 9 10 8 11 10 9 7 6 9 11 12 14 16 15 16 17 17 17 17 16 16 16 14 14 14 23 24 24 24 24 23 23 23 23 23 23 22 22 22 21 20 19 19 20 18 16 15 13
6 7 6 12 13 12 12 10 8 10 9 9 5 6 10 10 12 14 15 15 15 16 16 15 16 16 16 16 15 15 18 23 24 24 25 26 26 24 24 24 23 23 23 23 24 23 22 20 20 20 19 17 17 16
5 6 10 13 13 13 14 12 11 9 9 8 5 8 9 9 10 12 13 15 15 14 14 14 14 15 15 16 17 19 20 23 24 23 24 24 26 25 24 24 24 23 24 24 24 23 23 22 21 19 18 17 16 16
5 10 10 11 11 9 12 10 9 7 9 5 7 9 11 11 10 10 14 13 12 12 13 13 14 15 16 16 18 20 22 22 24 23 22 22 24 24 24 23 23 24 25 25 25 25 24 24 22 21 20 18 17 16
8 8 8 6 7 7 10 9 9 8 10 8 7 11 10 10 8 12 12 10 9 9 10 11 13 14 16 17 18 21 22 23 22 22 23 23 24 24 24 24 23 23 25 26 25 25 25 25 25 23 21 21 19 18
9 10 9 7 8 8 8 8 9 10 12 10 10 11 11 9 11 11 11 9 5 6 7 8 10 12 13 15 17 19 21 22 22 22 24 23 23 24 24 24 23 23 25 26 26 26 26 26 25 25 24 22 21 21
13 11 8 4 7 8 9 12 10 11 11 11 12 10 10 10 11 13 12 5 2 4 5 6 7 10 12 13 15 18 21 22 20 21 23 24 24 24 25 26 26 25 27 27 27 27 28 27 27 27 25 25 24 23
16 14 11 11 11 12 12 12 11 10 11 12 9 9 10 12 12 12 11 7 5 4 5 5 7 9 10 12 15 17 20 22 21 19 20 22 23 24 24 26 27 28 29 28 28 28 29 29 28 28 28 27 25 24
15 13 13 11 11 12 14 11 11 11 11 9 7 9 9 11 12 10 10 8 7 7 7 7 8 10 9 11 14 17 21 22 22 21 18 23 23 24 26 26 27 28 28 28 28 29 29 29 29 28 28 28 28 27
15 14 13 13 13 13 12 12 12 12 11 7 8 11 10 12 12 11 9 8 9 8 8 9 10 10 11 13 15 18 21 23 24 24 25 26 26 27 28 28 28 28 28 28 28 28 29 28 28 28 27 27 27 28
15 12 13 13 12 12 12 11 12 11 12 10 9 9 11 11 12 10 8 8 8 8 8 9 10 9 10 12 14 18 20 22 22 23 25 26 27 29 29 28 28 28 28 28 28 28 28 27 27 26 26 26 26 27
13 9 13 11 12 12 9 7 9 11 12 13 12 7 7 8 10 12 9 8 8 9 9 9 10 10 11 11 13 16 18 19 21 22 23 24 26 28 28 28 28 28 28 28 27 28 28 27 26 26 26 26 27 27
11 10 10 11 12 7 8 11 11 11 12 11 8 6 7 9 9 10 10 7 7 7 8 9 10 11 12 12 13 15 16 18 21 23 24 25 27 28 28 28 27 27 27 27 27 27 26 26 26 26 27 27 27 26
9 8 7 10 9 7 9 9 11 12 11 10 8 6 9 8 9 8 10 10 6 7 8 10 11 12 13 14 14 15 16 18 19 20 21 24 27 28 28 28 27 27 27 26 26 25 25 25 25 25 26 26 26 26
Wind_Direction
287 291 296 305 311 316 320 319 331 339 340 347 349 351 354 358 1 4 7 14 7 2 360 7 12 6 10 14 16 24 34 53 71 75 120 167 197 228 263 337 348 348 346 2 53 344 338 349 341 343 338 330 287 279
284 287 292 297 304 308 313 314 319 333 334 341 346 350 353 358 0 4 7 12 8 4 2 8 1 9 15 23 30 47 57 74 101 114 122 130 138 171 19 35 6 85 151 206 9 347 344 340 337 304 315 276 281 277
278 282 287 292 297 303 307 307 311 327 332 338 344 347 354 359 359 3 5 6 8 11 15 25 32 34 40 64 103 55 77 96 99 101 94 90 93 80 54 161 227 214 122 40 357 358 343 341 335 315 338 273 277 284
276 280 284 288 292 298 303 305 310 315 324 331 341 347 352 355 356 1 5 12 17 16 22 29 33 32 45 60 90 145 120 88 93 94 94 85 81 67 73 206 245 234 30 13 355 351 348 352 341 293 345 280 281 277
275 276 280 284 287 294 297 302 307 309 315 324 333 343 351 354 355 2 13 20 35 23 19 28 27 42 39 43 60 128 161 154 137 84 84 73 107 161 130 100 68 39 25 2 355 297 356 308 329 301 282 283 277 265
273 273 278 281 283 290 292 299 303 304 309 317 326 337 349 355 355 3 11 19 32 37 25 26 31 35 27 29 37 31 98 103 130 89 92 149 131 103 69 41 60 31 12 1 358 312 8 294 289 286 281 281 270 259
271 273 275 277 282 287 291 297 300 299 305 313 322 335 344 354 0 10 11 12 39 42 29 24 26 32 26 30 39 40 27 35 82 83 108 128 95 93 81 57 309 295 296 5 1 349 10 297 290 288 285 275 259 251
263 272 272 272 277 285 290 296 297 295 299 306 318 328 341 355 356 3 13 42 52 27 32 25 25 22 24 23 30 36 35 358 14 36 72 93 98 102 64 300 296 304 300 24 319 327 0 294 292 294 282 265 258 264
253 267 271 268 274 282 287 294 294 294 297 301 310 330 358 6 8 6 18 31 62 39 27 27 21 20 19 18 23 32 3 15 333 11 86 82 59 39 29 307 301 300 6 305 304 313 313 307 297 298 278 266 268 263
243 264 268 270 274 278 285 290 293 292 294 300 332 351 -0 9 2 25 14 18 30 30 31 23 21 12 12 11 16 21 32 350 335 318 1 51 61 324 310 300 302 295 302 310 308 319 316 309 297 298 281 265 258 267
238 249 259 269 272 276 278 287 290 295 303 322 351 355 355 354 4 7 15 21 22 19 28 20 11 3 11 8 13 53 49 323 350 312 311 347 305 312 307 303 300 299 299 305 40 335 311 303 287 302 286 285 285 290
223 239 254 267 269 271 267 282 290 301 311 330 344 350 355 358 -0 9 19 20 20 17 18 11 8 9 15 36 46 59 68 334 353 280 297 350 311 310 302 299 299 307 308 301 310 317 313 314 300 307 301 296 295 293
210 225 256 265 264 245 262 283 292 299 315 329 350 359 1 360 2 4 9 9 9 15 17 12 12 25 39 46 54 63 68 27 285 294 308 317 305 306 300 293 300 304 313 303 306 325 332 327 319 316 314 316 306 303
201 210 244 244 251 233 264 283 292 304 319 360 357 350 5 5 2 6 12 10 16 23 19 18 27 38 41 45 55 59 59 335 345 301 302 306 309 307 298 287 294 304 307 301 317 325 334 336 330 325 323 319 324 322
198 213 235 252 201 226 262 284 293 299 336 347 1 350 359 352 2 17 15 14 23 23 20 31 40 44 43 46 53 57 67 63 317 293 284 296 300 301 299 294 288 296 304 300 306 308 324 334 334 334 331 331 336 330
180 251 257 176 171 195 250 288 297 310 328 345 353 346 344 2 1 8 13 16 22 23 35 40 42 41 38 46 50 56 72 73 287 290 293 290 297 300 296 296 287 284 290 306 298 295 312 330 333 333 333 337 338 341
173 268 166 147 146 168 212 286 312 327 336 349 348 324 335 347 9 12 21 20 27 32 36 40 36 39 48 46 50 67 77 54 288 291 294 298 298 303 302 302 307 310 312 316 314 309 313 317 323 336 338 333 329 327
258 217 132 131 134 204 269 287 311 337 347 352 338 325 340 351 9 13 20 25 32 37 37 38 46 40 41 43 53 62 59 297 295 295 295 292 303 304 309 311 314 311 312 322 320 322 320 313 317 323 327 322 331 332
130 130 129 132 191 269 313 304 324 339 340 328 323 344 354 1 1 11 19 21 28 36 40 37 36 37 42 51 51 52 43 300 294 299 302 305 302 306 308 318 323 321 320 318 322 320 322 331 326 319 315 321 321 323
115 124 132 151 249 289 313 325 335 340 337 333 336 352 355 357 9 13 18 25 30 30 28 31 37 44 47 48 50 44 31 300 291 299 304 306 299 303 309 310 314 317 316 319 327 325 317 317 320 321 315 317 323 320
102 125 167 235 261 287 306 341 354 340 349 339 1 348 344 2 0 4 15 20 23 23 27 37 44 49 51 54 52 46 23 330 300 291 299 303 302 301 306 310 309 311 315 315 315 317 318 313 309 308 309 313 325 331
214 210 237 248 268 289 306 318 334 348 346 356 4 346 348 353 1 4 18 14 20 26 37 44 50 50 49 43 39 31 23 357 324 297 293 301 307 306 305 305 304 306 310 308 309 307 307 307 305 304 307 305 316 322
200 233 247 270 290 314 322 330 343 355 350 12 348 339 339 347 356 15 3 11 18 33 45 46 49 48 46 44 40 26 19 10 353 336 309 306 309 309 306 309 309 310 309 306 304 305 302 302 300 300 303 304 294 301
230 260 288 313 325 336 326 332 336 345 344 343 336 327 344 345 4 354 355 9 22 50 50 53 52 46 41 40 33 25 17 11 3 354 330 311 310 312 313 311 312 317 314 305 305 303 302 302 299 301 297 299 296 289
271 283 307 320 319 330 333 332 332 328 320 328 326 323 340 353 344 346 348 4 50 69 66 55 45 39 34 33 30 23 16 10 6 1 347 332 314 310 311 313 312 316 315 309 310 304 301 298 298 299 295 291 292 286
276 296 318 337 329 327 328 313 312 315 324 320 324 341 343 345 342 343 349 4 66 100 90 77 56 33 27 28 25 16 6 3 8 1 353 344 330 316 311 308 308 311 317 310 307 305 302 296 291 288 289 283 286 288
277 298 310 315 320 326 327 325 327 323 316 320 325 334 339 337 338 346 356 21 44 79 88 75 49 29 30 27 19 11 3 356 356 358 357 348 340 332 319 313 310 307 310 312 313 309 304 301 297 290 285 282 284 286
296 305 302 310 313 319 320 323 319 317 323 338 346 328 336 339 344 1 9 31 50 69 68 44 25 17 30 22 14 7 358 354 352 351 348 338 332 329 323 319 313 308 310 309 311 312 310 304 300 297 292 285 282 282
300 306 310 308 309 315 318 319 323 332 339 344 333 335 341 346 352 5 26 50 67 66 47 32 23 39 32 21 10 2 356 351 346 342 337 333 328 324 319 317 318 319 316 312 310 310 310 310 304 300 298 293 287 284
301 311 307 309 310 311 321 329 331 342 345 351 352 354 355 357 356 15 49 55 55 51 44 46 57 51 39 23 9 1 357 355 351 346 338 332 330 325 323 320 318 316 317 319 315 315 315 314 315 311 306 303 298 291
314 309 309 315 312 318 329 359 2 354 344 342 348 3 13 18 12 5 19 37 52 55 56 44 31 35 37 38 27 10 3 360 355 353 352 346 339 334 328 326 322 321 321 320 320 320 321 320 319 318 316 310 303 299
311 307 310 315 320 338 339 328 335 339 342 343 344 350 1 356 353 357 358 21 42 33 29 42 40 43 40 43 34 19 15 6 354 349 347 342 339 338 337 336 332 328 326 325 325 324 323 324 324 324 321 319 318 312
324 324 317 328 338 330 334 338 337 340 342 339 339 339 337 339 339 353 331 332 10 43 57 57 51 44 47 44 29 19 16 14 14 12 5 353 344 338 335 333 334 334 333 329 326 325 325 325 326 327 329 328 327 325